Погода в Ванне

Франция     47°40′24″N   2°47′06″W
темп.,
°C
ветер,
м/с
пор.,
м/с
влажн.,
%
обл.,
%
осадки,
мм/ч
давл.,
гПа
погр.,
м
6 мая, чт
чт623:00+8з2473100 0.1 1015121
02:00+7вюв2289100 0.6 101258
05:00+8юв41099100 1.8 1007419
08:00+11зюз81496100 3.3 1005941
11:00+13з10168594 0.9 10051370
14:00+15з111555100 0.9 10071626
17:00+15з91357100 0.0 10081699
20:00+12зсз4773100 0.1 1010594
7 мая, пт
пт723:00+6ссв239178 0.1 101349
02:00+4ссв22928 0.1 101414
05:00+6с2386100 0.0 1015109
08:00+7св228027 0.0 1016110
11:00+11в2161100 0.0 1017694
14:00+14ююз3354100 0.0 10171581
17:00+14ююз4357100 0.0 10171058
20:00+12ю357192 0.0 1017461
8 мая, сб
сб823:00+10ююв3785100 0.0 1016298
02:00+11ююв61293100 0.3 1014539
05:00+13ююз6129898 0.5 1012569
08:00+13ююз71397100 0.5 1010713
11:00+16ююз91482100 0.0 1010888
14:00+17ююз101467100 0.0 10091111
17:00+17ююз8136715 0.0 1008958
20:00+15ююз5108124 0.0 1006486
9 мая, вс
вс923:00+11ююв33925 0.0 100434
02:00+11юв238546 0.0 100220
05:00+10вюв33824 0.0 99841
08:00+13ююв499852 0.0 997264
11:00+17юз6106661 0.0 997764
14:00+16юз81462100 0.0 9991226
17:00+15юз7106597 0.0 9991144
20:00+13ююз61182100 0.0 999941
10 мая, пн
пн1023:00+11ююз7129053 0.1 1000679
02:00+11ююз8139049 0.3 1000709
05:00+10юз7129119 0.1 1001651
08:00+10юз6118512 0.2 1002850
11:00+13юз811657 0.2 10031398
14:00+14юз911655 1.0 10041519
17:00+14юз911676 0.6 10051579
20:00+11юз610810 1.3 10051031